Location: Newark
(37.0133°S, 81.3511°E)
Time: 11:05:41
(UTC+00:00)

N. Korean satellite - Pass Details

Date: 27 January 2020
Orbit: 456 x 505 km, 97.2° (Epoch: 25 February)

Event Time Altitude Azimuth Distance (km) Brightness Sun altitude
Rises 22:31:55 0° 56° (NE) 2,608 10.6 -13.4°
Reaches altitude 10° 22:34:57 10° 84° (E) 1,734 10.1 -12.9°
Maximum altitude 22:36:43 13° 112° (ESE) 1,554 10.4 -12.6°
Drops below altitude 10° 22:38:29 10° 141° (SE) 1,743 10.7 -12.3°
Sets 22:41:32 0° 168° (SSE) 2,634 11.0 -11.8°
